TimeEST,TemperatureF,Dew PointF,Humidity,Sea Level PressureIn,VisibilityMPH,Wind Direction,Wind SpeedMPH,Gust SpeedMPH,PrecipitationIn,Events,Conditions,WindDirDegrees,DateUTC
12:53 AM,17.1,12.0,81,30.34,7.0,Calm,Calm,-,N/A,,Clear,0,2013-02-07 05:53:00
1:53 AM,17.1,12.9,84,30.36,5.0,Calm,Calm,-,N/A,,Clear,0,2013-02-07 06:53:00
2:53 AM,16.0,12.0,84,30.36,5.0,Calm,Calm,-,N/A,,Clear,0,2013-02-07 07:53:00
3:53 AM,17.1,12.9,84,30.35,4.0,Calm,Calm,-,N/A,,Clear,0,2013-02-07 08:53:00
4:53 AM,19.0,14.0,81,30.35,5.0,Calm,Calm,-,N/A,,Haze,0,2013-02-07 09:53:00
5:49 AM,17.6,12.2,79,30.32,5.0,Calm,Calm,-,N/A,,Haze,0,2013-02-07 10:49:00
5:53 AM,18.0,12.9,81,30.39,5.0,Calm,Calm,-,N/A,,Haze,0,2013-02-07 10:53:00
6:53 AM,18.0,14.0,84,30.40,4.0,Calm,Calm,-,N/A,,Clear,0,2013-02-07 11:53:00
7:34 AM,17.6,14.0,86,30.32,2.0,Calm,Calm,-,N/A,,Mostly Cloudy,0,2013-02-07 12:34:00
7:53 AM,19.0,15.1,85,30.40,2.0,Calm,Calm,-,N/A,,Scattered Clouds,0,2013-02-07 12:53:00
8:53 AM,21.9,17.1,82,30.40,2.5,Calm,Calm,-,N/A,,Haze,0,2013-02-07 13:53:00
9:15 AM,23.0,17.6,80,30.33,4.0,Calm,Calm,-,N/A,,Haze,0,2013-02-07 14:15:00
9:53 AM,26.1,19.0,75,30.40,3.0,Calm,Calm,-,N/A,,Haze,0,2013-02-07 14:53:00
10:53 AM,28.9,18.0,64,30.38,8.0,Calm,Calm,-,N/A,,Mostly Cloudy,0,2013-02-07 15:53:00
11:53 AM,30.9,19.9,64,30.35,10.0,SSE,6.9,-,N/A,,Overcast,150,2013-02-07 16:53:00
12:53 PM,32.0,21.0,64,30.32,-9999.0,North,-9999.0,-,N/A,,Mostly Cloudy,0,2013-02-07 17:53:00
1:53 PM,33.1,21.9,64,30.29,10.0,SSE,6.9,-,N/A,,Mostly Cloudy,150,2013-02-07 18:53:00
2:53 PM,34.0,21.9,61,30.26,10.0,SE,9.2,-,N/A,,Clear,130,2013-02-07 19:53:00
3:53 PM,33.1,21.9,64,30.25,10.0,SE,9.2,-,N/A,,Partly Cloudy,140,2013-02-07 20:53:00
4:24 PM,33.8,21.2,60,30.20,10.0,SSE,5.8,-,N/A,,Overcast,150,2013-02-07 21:24:00
4:53 PM,32.0,21.9,66,30.25,10.0,SSE,10.4,-,N/A,,Mostly Cloudy,150,2013-02-07 21:53:00
5:53 PM,30.9,21.9,69,30.25,10.0,SE,6.9,-,N/A,,Scattered Clouds,140,2013-02-07 22:53:00
6:53 PM,30.9,21.0,67,30.26,10.0,SSE,11.5,-,N/A,,Overcast,150,2013-02-07 23:53:00
7:53 PM,30.9,21.0,67,30.24,10.0,SSE,9.2,17.3,N/A,,Overcast,150,2013-02-08 00:53:00
8:53 PM,30.9,21.9,69,30.23,10.0,South,9.2,-,N/A,,Overcast,170,2013-02-08 01:53:00
9:12 PM,30.2,21.2,69,30.16,10.0,SSE,10.4,-,N/A,,Overcast,160,2013-02-08 02:12:00
9:53 PM,30.9,21.9,69,30.20,10.0,SSE,12.7,-,N/A,,Overcast,160,2013-02-08 02:53:00
10:48 PM,30.2,21.2,69,30.13,10.0,SSE,18.4,23.0,N/A,,Overcast,160,2013-02-08 03:48:00
10:53 PM,30.9,21.9,69,30.19,10.0,South,11.5,23.0,N/A,,Overcast,170,2013-02-08 03:53:00
11:17 PM,30.2,21.2,69,30.12,10.0,South,6.9,-,N/A,,Overcast,170,2013-02-08 04:17:00